Orbital Elements at Epoch 2459200.5 (2020-Dec-17.0) TDB
Reference: JPL 20 (heliocentric ecliptic J2000)
Element | Value | Uncertainty (1-sigma) | Units |
e | .1103661345219013 | 3.45e-08 | |
a | 2.248929305028617 | 1.061e-08 | au |
q | 2.000723670819583 | 7.5103e-08 | au |
i | 6.044771338178339 | 4.3382e-06 | deg |
node | 187.5204457449807 | 3.7158e-05 | deg |
peri | 80.553674482575 | 4.3407e-05 | deg |
M | 180.0594673763449 | 2.1207e-05 | deg |
tp | 2459816.227616890156 (2022-Aug-24.72761689) | 7.2561e-05 | TDB |
period | 1231.86220941149 3.37 | 8.7173e-06 2.387e-08 | d yr |
n | .2922404772624582 | 2.068e-09 | deg/d |
Q | 2.497134939237652 | 1.1781e-08 | au |
|
| | Orbit Determination Parameters
Additional Information
|